This is the latest recevied weather packets stored in our database for station/object KD4MBW. If no packets are shown the sender has not sent any weather packets the latest 10 day(s).
| Time | Temp. | Humidity | Pressure | Rain* | Wind** | Luminosity | Snow |
|---|---|---|---|---|---|---|---|
| 1787774054 | 29.44° C | 83% | 1015.7 hPa | 0 mm | - | 85 W/m² | - |
| 1787773752 | 29.44° C | 84% | 1015.7 hPa | 0 mm | - | 74 W/m² | - |
| 1787773448 | 30° C | 82% | 1015.6 hPa | 0 mm | - | 85 W/m² | - |
| 1787773143 | 30° C | 82% | 1015.6 hPa | 0 mm | - | 110 W/m² | - |
| 1787772838 | 30° C | 82% | 1015.4 hPa | 0 mm | - | 138 W/m² | - |
| 1787772537 | 30.56° C | 81% | 1015.2 hPa | 0 mm | - | 149 W/m² | - |
| 1787772231 | 30.56° C | 76% | 1015.5 hPa | 0 mm | - | 156 W/m² | - |
| 1787771930 | 31.11° C | 79% | 1015.6 hPa | 0 mm | - | 497 W/m² | - |
| 1787771624 | 31.11° C | 78% | 1015.5 hPa | 0 mm | - | 717 W/m² | - |
| 1787771319 | 31.11° C | 78% | 1015.5 hPa | 0 mm | - | 705 W/m² | - |
| 1787771014 | 31.11° C | 80% | 1015.7 hPa | 0 mm | - | 788 W/m² | - |
| 1787770713 | 31.11° C | 79% | 1015.4 hPa | 0 mm | - | 753 W/m² | - |
| 1787770407 | 31.11° C | 78% | 1015.5 hPa | 0 mm | - | 822 W/m² | - |
| 1787770106 | 31.67° C | 78% | 1015.6 hPa | 0 mm | - | 212 W/m² | - |
| 1787769800 | 31.67° C | 77% | 1015.6 hPa | 0 mm | - | 753 W/m² | - |
| 1787769500 | 31.67° C | 76% | 1015.7 hPa | 0 mm | - | 734 W/m² | - |
| 1787769194 | 31.11° C | 77% | 1015.8 hPa | 0 mm | - | 752 W/m² | - |
| 1787768888 | 31.67° C | 76% | 1016.1 hPa | 0 mm | - | 755 W/m² | - |
| 1787768584 | 31.11° C | 74% | 1015.9 hPa | 0 mm | - | 751 W/m² | - |
| 1787768280 | 32.22° C | 74% | 1016.1 hPa | 0 mm | - | 764 W/m² | - |
| 1787767977 | 31.67° C | 76% | 1016.2 hPa | 0 mm | - | 768 W/m² | - |
| 1787767671 | 31.67° C | 74% | 1015.9 hPa | 0 mm | - | 791 W/m² | - |
| 1787767370 | 31.67° C | 75% | 1016 hPa | 0 mm | - | 799 W/m² | - |
| 1787767070 | 31.67° C | 73% | 1016.1 hPa | 0 mm | - | 809 W/m² | - |
| 1787766768 | 32.22° C | 74% | 1016.2 hPa | 0 mm | - | 737 W/m² | - |
* Rain latest hour (hover to see other rain measurements)
** Current wind speed in m/s (hover to see current wind gust speed)